Location: ????????
(41.2031°N, 22.5756°E)
Time: 06:14:36
(UTC+00:00)

Cosmos 2285 Rocket - Pass Details

Date: 01 December 2020
Orbit: 971 x 998 km, 74.0° (Epoch: 20 January)

Event Time Altitude Azimuth Distance (km) Brightness Sun altitude
Rises 15:41:32 0° 341° (NNW) 3,712 7.0 -7.6°
Reaches altitude 10° 15:44:07 10° 344° (NNW) 2,756 6.3 -8.1°
Maximum altitude 15:50:31 74° 70° (ENE) 1,024 4.0 -9.2°
Drops below altitude 10° 15:56:49 10° 155° (SSE) 2,720 6.3 -10.3°
Sets 15:59:20 0° 157° (SSE) 3,661 7.0 -10.7°
